TimePDT,TemperatureF,Dew PointF,Humidity,Sea Level PressureIn,VisibilityMPH,Wind Direction,Wind SpeedMPH,Gust SpeedMPH,PrecipitationIn,Events,Conditions,WindDirDegrees,DateUTC
12:53 AM,61.0,55.0,81,29.54,10.0,SW,17.3,24.2,N/A,,Overcast,220,2012-10-16 07:53:00
1:53 AM,62.1,55.0,78,29.51,10.0,SW,20.7,26.5,N/A,,Overcast,230,2012-10-16 08:53:00
2:53 AM,62.1,55.0,78,29.48,10.0,WSW,18.4,24.2,N/A,,Overcast,240,2012-10-16 09:53:00
3:37 AM,62.6,55.4,77,29.50,10.0,WSW,12.7,21.9,N/A,,Overcast,240,2012-10-16 10:37:00
3:53 AM,62.1,54.0,75,29.45,10.0,SW,18.4,25.3,N/A,,Overcast,230,2012-10-16 10:53:00
4:53 AM,60.8,53.6,77,29.46,10.0,WSW,15.0,23.0,N/A,,Overcast,240,2012-10-16 11:53:00
5:53 AM,60.1,52.0,75,29.44,10.0,WSW,17.3,23.0,N/A,,Overcast,240,2012-10-16 12:53:00
6:53 AM,57.9,43.0,58,29.48,10.0,West,20.7,40.3,N/A,,Partly Cloudy,260,2012-10-16 13:53:00
7:53 AM,54.0,37.0,53,29.55,10.0,WSW,15.0,32.2,N/A,,Partly Cloudy,250,2012-10-16 14:53:00
8:53 AM,54.0,37.0,53,29.62,10.0,WSW,16.1,25.3,N/A,,Scattered Clouds,250,2012-10-16 15:53:00
9:53 AM,52.0,37.0,57,29.68,10.0,WSW,21.9,29.9,N/A,,Clear,250,2012-10-16 16:53:00
10:53 AM,54.0,32.0,43,29.71,10.0,WSW,23.0,39.1,N/A,,Clear,250,2012-10-16 17:53:00
11:53 AM,55.0,30.9,40,29.75,10.0,WSW,31.1,40.3,N/A,,Clear,240,2012-10-16 18:53:00
12:53 PM,57.0,28.9,34,29.78,10.0,West,23.0,38.0,N/A,,Partly Cloudy,260,2012-10-16 19:53:00
1:53 PM,59.0,26.1,28,29.78,10.0,WSW,20.7,36.8,N/A,,Scattered Clouds,250,2012-10-16 20:53:00
2:53 PM,59.0,24.1,26,29.81,10.0,West,19.6,34.5,N/A,,Partly Cloudy,270,2012-10-16 21:53:00
3:53 PM,57.9,25.0,28,29.84,10.0,WSW,28.8,40.3,N/A,,Scattered Clouds,240,2012-10-16 22:53:00
4:53 PM,55.9,27.0,33,29.87,10.0,West,15.0,40.3,N/A,,Mostly Cloudy,260,2012-10-16 23:53:00
5:53 PM,54.0,27.0,35,29.90,10.0,West,16.1,26.5,N/A,,Scattered Clouds,260,2012-10-17 00:53:00
6:53 PM,52.0,27.0,38,29.94,10.0,WSW,13.8,23.0,N/A,,Scattered Clouds,250,2012-10-17 01:53:00
7:53 PM,50.0,28.9,44,29.98,10.0,West,16.1,25.3,N/A,,Clear,260,2012-10-17 02:53:00
8:53 PM,46.9,30.0,52,30.01,10.0,WSW,9.2,-,N/A,,Clear,250,2012-10-17 03:53:00
9:53 PM,46.0,30.0,54,30.03,10.0,West,10.4,17.3,N/A,,Clear,260,2012-10-17 04:53:00
10:53 PM,45.0,30.0,56,30.05,10.0,West,6.9,-,N/A,,Clear,260,2012-10-17 05:53:00
11:53 PM,43.0,30.0,60,30.08,10.0,SW,9.2,-,N/A,,Clear,230,2012-10-17 06:53:00